Location: Azat
(46.0765°N, 1.7600°E)
Time: 13:56:33
(UTC+00:00)

BREEZE M DEB (TANK) - Visible Passes

Search period start: 06 August 2020 00:00
Search period end: 16 August 2020 00:00
Orbit: 304 x 11871 km, 49.5° (Epoch: 05 August)

Date Brightness Start Highest point End Pass type
(mag) Time Alt. Az. Time Alt. Az. Time Alt. Az.
06 Aug 5.8 03:01:32 14° SSW 03:28:59 56° SSE 03:36:47 10° ENE visible
07 Aug 6.3 02:07:31 20° SSW 02:30:34 45° SE 02:40:02 10° ENE visible
08 Aug 6.9 01:13:24 23° S 01:31:37 36° SE 01:42:52 10° E visible
09 Aug 7.3 00:19:13 22° SSE 00:32:16 27° SE 00:44:59 10° E visible
09 Aug 4.9 04:14:23 10° WSW 04:39:33 84° SSE 04:45:26 10° ENE visible
09 Aug 7.5 23:24:58 18° SE 23:32:46 19° SE 23:45:34 10° E visible
10 Aug 5.4 03:15:56 15° SW 03:41:47 69° SSE 03:48:57 10° ENE visible
10 Aug 7.8 22:30:39 11° SE 22:33:23 11° ESE 22:40:08 10° ESE visible
11 Aug 5.9 02:21:35 23° SSW 02:43:34 57° SSE 02:52:19 10° ENE visible
12 Aug 6.5 01:27:10 28° S 01:44:50 46° SE 01:55:25 10° ENE visible
13 Aug 7.0 00:32:42 29° SSE 00:45:35 36° SE 00:58:07 10° ENE visible
13 Aug 7.3 23:38:10 26° SSE 23:45:59 28° SE 00:00:02 10° E visible
14 Aug 5.1 03:29:05 14° WSW 03:54:10 83° SSE 04:00:47 10° ENE visible
14 Aug 7.5 22:43:33 19° SE 22:46:18 19° SE 23:00:22 10° E visible
15 Aug 5.6 02:34:28 23° SW 02:56:07 69° SSE 03:04:12 10° ENE visible
15 Aug 7.8 21:48:53 11° ESE 21:48:53 11° ESE 21:54:31 10° ESE visible
